Station Historical Data
Daily Summary for July 25, 2017 Units:  English    Metric   Both
Next Day »
Daily Weekly Monthly Yearly Custom
  High: Low: Average:
Temperature: 85.6 °F 67.5 °F 75.1 °F
Dew Point: 56.8 °F 49.2 °F 51.6 °F
Humidity: 61% 30% 45%
Wind Speed: 12.0mph 0.0mph 2.1mph
Wind Gust: 15.0mph - -
Wind- - SE
Pressure: 29.95 in 29.83 in -
Precipitation: 0.00 in    
Historical Graphs
 
 
Tabular Data for July 25, 2017
Time Temperature Dew Point Pressure Wind Wind Speed Wind Gust Humidity Rainfall Rate (Hourly) solar Conditions
00:03 68.5 °F 49.2 °F 29.84 in Calm   3.0 mph 50% 0.00 in 0.00 W/m2
00:08 68.4 °F 49.6 °F 29.84 in Calm   2.0 mph 51% 0.00 in 0.00 W/m2
00:13 68.2 °F 49.4 °F 29.84 in Calm   3.0 mph 51% 0.00 in 0.00 W/m2
00:18 68.1 °F 49.3 °F 29.84 in NNW 4.0 mph 6.0 mph 51% 0.00 in 0.00 W/m2
00:23 68.0 °F 49.2 °F 29.84 in North 3.0 mph 5.0 mph 51% 0.00 in 0.00 W/m2
00:28 68.0 °F 49.2 °F 29.84 in Calm   7.0 mph 51% 0.00 in 0.00 W/m2
00:33 67.9 °F 49.7 °F 29.84 in NE 5.0 mph 7.0 mph 52% 0.00 in 0.00 W/m2
00:38 67.9 °F 49.7 °F 29.84 in NE 1.0 mph 4.0 mph 52% 0.00 in 0.00 W/m2
00:43 68.0 °F 49.2 °F 29.84 in Calm     51% 0.00 in 0.00 W/m2
00:49 68.1 °F 49.3 °F 29.84 in Calm   4.0 mph 51% 0.00 in 0.00 W/m2
00:54 68.1 °F 49.3 °F 29.84 in Calm   3.0 mph 51% 0.00 in 0.00 W/m2
00:59 68.1 °F 49.3 °F 29.84 in Calm   3.0 mph 51% 0.00 in 0.00 W/m2
01:04 68.2 °F 49.9 °F 29.84 in NE 2.0 mph 3.0 mph 52% 0.00 in 0.00 W/m2
01:09 68.2 °F 49.4 °F 29.84 in Calm   2.0 mph 51% 0.00 in 0.00 W/m2
01:14 68.1 °F 49.3 °F 29.84 in Calm   1.0 mph 51% 0.00 in 0.00 W/m2
01:19 68.1 °F 49.3 °F 29.84 in Calm     51% 0.00 in 0.00 W/m2
01:24 68.1 °F 49.3 °F 29.84 in NE 3.0 mph 5.0 mph 51% 0.00 in 0.00 W/m2
01:25 68.1 °F 49.3 °F 29.84 in Calm   5.0 mph 51% 0.00 in 0.00 W/m2
01:30 68.1 °F 49.3 °F 29.84 in East 4.0 mph 7.0 mph 51% 0.00 in 0.00 W/m2
01:35 68.1 °F 49.8 °F 29.84 in East 8.0 mph 9.0 mph 52% 0.00 in 0.00 W/m2
01:40 68.1 °F 49.8 °F 29.84 in ESE 11.0 mph 12.0 mph 52% 0.00 in 0.00 W/m2
01:45 68.1 °F 49.3 °F 29.84 in ESE 6.0 mph 11.0 mph 51% 0.00 in 0.00 W/m2
01:50 68.1 °F 49.8 °F 29.84 in East 6.0 mph 12.0 mph 52% 0.00 in 0.00 W/m2
01:55 68.2 °F 49.4 °F 29.84 in East 4.0 mph 12.0 mph 51% 0.00 in 0.00 W/m2
02:00 68.3 °F 49.5 °F 29.84 in East 1.0 mph 11.0 mph 51% 0.00 in 0.00 W/m2
02:05 68.4 °F 49.6 °F 29.84 in East 5.0 mph 8.0 mph 51% 0.00 in 0.00 W/m2
02:10 68.5 °F 49.7 °F 29.84 in Calm   7.0 mph 51% 0.00 in 0.00 W/m2
02:15 68.6 °F 49.2 °F 29.83 in ESE 4.0 mph 11.0 mph 50% 0.00 in 0.00 W/m2
02:20 68.7 °F 49.3 °F 29.83 in Calm   9.0 mph 50% 0.00 in 0.00 W/m2
02:25 68.8 °F 49.4 °F 29.83 in East 8.0 mph 9.0 mph 50% 0.00 in 0.00 W/m2
02:30 68.9 °F 49.5 °F 29.83 in East 2.0 mph 11.0 mph 50% 0.00 in 0.00 W/m2
02:35 68.9 °F 49.5 °F 29.83 in ESE 5.0 mph 9.0 mph 50% 0.00 in 0.00 W/m2
02:40 69.0 °F 49.6 °F 29.83 in East 6.0 mph 11.0 mph 50% 0.00 in 0.00 W/m2
02:45 69.1 °F 49.7 °F 29.83 in Calm   9.0 mph 50% 0.00 in 0.00 W/m2
02:50 69.1 °F 49.7 °F 29.84 in East 8.0 mph 9.0 mph 50% 0.00 in 0.00 W/m2
02:55 69.2 °F 49.8 °F 29.84 in East 1.0 mph 9.0 mph 50% 0.00 in 0.00 W/m2
03:00 69.2 °F 49.8 °F 29.84 in ESE 7.0 mph 12.0 mph 50% 0.00 in 0.00 W/m2
03:05 69.2 °F 49.8 °F 29.83 in East 5.0 mph 11.0 mph 50% 0.00 in 0.00 W/m2
03:10 69.2 °F 49.2 °F 29.83 in ESE 7.0 mph 12.0 mph 49% 0.00 in 0.00 W/m2
03:15 69.2 °F 49.2 °F 29.83 in ESE 5.0 mph 13.0 mph 49% 0.00 in 0.00 W/m2
03:20 69.2 °F 49.2 °F 29.83 in Calm   11.0 mph 49% 0.00 in 0.00 W/m2
03:25 69.2 °F 49.2 °F 29.83 in East 2.0 mph 11.0 mph 49% 0.00 in 0.00 W/m2
03:30 69.3 °F 49.3 °F 29.83 in East 4.0 mph 12.0 mph 49% 0.00 in 0.00 W/m2
03:35 69.3 °F 49.3 °F 29.83 in East 7.0 mph 12.0 mph 49% 0.00 in 0.00 W/m2
03:41 69.2 °F 49.2 °F 29.83 in ESE 5.0 mph 11.0 mph 49% 0.00 in 0.00 W/m2
03:46 69.3 °F 49.3 °F 29.83 in Calm   11.0 mph 49% 0.00 in 0.00 W/m2
03:50 69.3 °F 49.3 °F 29.83 in ESE 7.0 mph 13.0 mph 49% 0.00 in 0.00 W/m2
03:56 69.3 °F 49.3 °F 29.83 in East 4.0 mph 12.0 mph 49% 0.00 in 0.00 W/m2
04:01 69.3 °F 49.3 °F 29.83 in East 9.0 mph 11.0 mph 49% 0.00 in 0.00 W/m2
04:06 69.3 °F 49.3 °F 29.83 in East 5.0 mph 6.0 mph 49% 0.00 in 0.00 W/m2
04:11 69.3 °F 49.3 °F 29.83 in East 5.0 mph 7.0 mph 49% 0.00 in 0.00 W/m2
04:16 69.2 °F 49.2 °F 29.83 in East 6.0 mph 8.0 mph 49% 0.00 in 0.00 W/m2
04:21 69.2 °F 49.8 °F 29.83 in ESE 4.0 mph 6.0 mph 50% 0.00 in 0.00 W/m2
04:26 69.2 °F 49.8 °F 29.83 in East 8.0 mph 8.0 mph 50% 0.00 in 0.00 W/m2
04:31 69.2 °F 49.8 °F 29.83 in East 5.0 mph 6.0 mph 50% 0.00 in 0.00 W/m2
04:36 69.2 °F 49.8 °F 29.83 in ESE 6.0 mph 11.0 mph 50% 0.00 in 0.00 W/m2
04:41 69.2 °F 49.8 °F 29.83 in East 5.0 mph 6.0 mph 50% 0.00 in 0.00 W/m2
04:46 69.2 °F 49.8 °F 29.83 in ESE 12.0 mph 12.0 mph 50% 0.00 in 0.00 W/m2
04:51 69.2 °F 49.8 °F 29.83 in East 9.0 mph 11.0 mph 50% 0.00 in 0.00 W/m2
04:52 69.2 °F 49.8 °F 29.83 in ESE 8.0 mph 12.0 mph 50% 0.00 in 0.00 W/m2
04:57 69.2 °F 49.8 °F 29.83 in East 5.0 mph 13.0 mph 50% 0.00 in 0.00 W/m2
05:02 69.2 °F 49.8 °F 29.83 in East 5.0 mph 9.0 mph 50% 0.00 in 0.00 W/m2
05:07 69.2 °F 49.8 °F 29.83 in ESE 4.0 mph 13.0 mph 50% 0.00 in 0.00 W/m2
05:12 69.3 °F 49.9 °F 29.83 in ESE 4.0 mph 13.0 mph 50% 0.00 in 0.00 W/m2
05:17 69.2 °F 49.8 °F 29.83 in ESE 5.0 mph 11.0 mph 50% 0.00 in 0.00 W/m2
05:22 69.3 °F 49.9 °F 29.84 in East 5.0 mph 9.0 mph 50% 0.00 in 0.00 W/m2
05:27 69.3 °F 49.9 °F 29.84 in ESE 5.0 mph 9.0 mph 50% 0.00 in 0.00 W/m2
05:32 69.3 °F 49.9 °F 29.84 in East 1.0 mph 12.0 mph 50% 0.00 in 0.00 W/m2
05:37 69.3 °F 49.9 °F 29.84 in ESE 4.0 mph 12.0 mph 50% 0.00 in 0.00 W/m2
05:42 69.2 °F 49.8 °F 29.84 in East 6.0 mph 12.0 mph 50% 0.00 in 0.00 W/m2
05:47 69.2 °F 49.8 °F 29.84 in East 4.0 mph 12.0 mph 50% 0.00 in 0.00 W/m2
05:52 69.2 °F 49.8 °F 29.84 in Calm   11.0 mph 50% 0.00 in 0.00 W/m2
05:57 69.2 °F 50.3 °F 29.84 in East 2.0 mph 6.0 mph 51% 0.00 in 5.00 W/m2
06:02 69.0 °F 50.7 °F 29.85 in Calm   6.0 mph 52% 0.00 in 7.00 W/m2
06:07 68.7 °F 50.4 °F 29.85 in East 7.0 mph 9.0 mph 52% 0.00 in 9.00 W/m2
06:12 68.5 °F 50.2 °F 29.85 in East 4.0 mph 5.0 mph 52% 0.00 in 12.00 W/m2
06:18 68.4 °F 50.6 °F 29.85 in East 5.0 mph 8.0 mph 53% 0.00 in 14.00 W/m2
06:23 68.3 °F 50.5 °F 29.85 in East 5.0 mph 7.0 mph 53% 0.00 in 18.00 W/m2
06:28 68.2 °F 50.4 °F 29.85 in East 1.0 mph 11.0 mph 53% 0.00 in 21.00 W/m2
06:33 68.1 °F 50.3 °F 29.85 in East 9.0 mph 11.0 mph 53% 0.00 in 28.00 W/m2
06:38 68.0 °F 50.2 °F 29.85 in East 5.0 mph 11.0 mph 53% 0.00 in 37.00 W/m2
06:43 68.0 °F 50.8 °F 29.85 in Calm   7.0 mph 54% 0.00 in 49.00 W/m2
06:48 68.0 °F 50.8 °F 29.85 in East 1.0 mph 9.0 mph 54% 0.00 in 49.00 W/m2
06:53 67.8 °F 51.1 °F 29.86 in East 5.0 mph 9.0 mph 55% 0.00 in 77.00 W/m2
06:58 67.7 °F 51.0 °F 29.86 in East 2.0 mph 12.0 mph 55% 0.00 in 93.00 W/m2
07:03 67.6 °F 51.4 °F 29.86 in ESE 7.0 mph 11.0 mph 56% 0.00 in 109.00 W/m2
07:08 67.6 °F 51.4 °F 29.86 in ESE 4.0 mph 11.0 mph 56% 0.00 in 123.00 W/m2
07:13 67.5 °F 51.3 °F 29.86 in Calm   12.0 mph 56% 0.00 in 139.00 W/m2
07:18 67.5 °F 51.3 °F 29.86 in ESE 8.0 mph 11.0 mph 56% 0.00 in 160.00 W/m2
07:23 67.5 °F 51.3 °F 29.87 in East 1.0 mph 9.0 mph 56% 0.00 in 179.00 W/m2
07:28 67.6 °F 51.4 °F 29.87 in East 2.0 mph 7.0 mph 56% 0.00 in 200.00 W/m2
07:33 67.7 °F 51.5 °F 29.87 in Calm   11.0 mph 56% 0.00 in 218.00 W/m2
07:38 67.8 °F 52.0 °F 29.87 in Calm   13.0 mph 57% 0.00 in 236.00 W/m2
07:43 67.9 °F 52.1 °F 29.87 in Calm   9.0 mph 57% 0.00 in 255.00 W/m2
07:48 68.0 °F 52.2 °F 29.87 in Calm   11.0 mph 57% 0.00 in 271.00 W/m2
07:53 68.1 °F 52.3 °F 29.87 in East 7.0 mph 8.0 mph 57% 0.00 in 287.00 W/m2
07:58 68.3 °F 53.0 °F 29.87 in East 4.0 mph 9.0 mph 58% 0.00 in 301.00 W/m2
08:03 68.4 °F 53.1 °F 29.87 in Calm   9.0 mph 58% 0.00 in 318.00 W/m2
08:08 68.5 °F 53.2 °F 29.87 in ESE 8.0 mph 9.0 mph 58% 0.00 in 332.00 W/m2
08:13 68.7 °F 53.3 °F 29.88 in ESE 2.0 mph 8.0 mph 58% 0.00 in 350.00 W/m2
08:18 68.9 °F 54.0 °F 29.88 in Calm   6.0 mph 59% 0.00 in 367.00 W/m2
08:23 69.1 °F 54.2 °F 29.88 in Calm   4.0 mph 59% 0.00 in 383.00 W/m2
08:28 69.3 °F 54.4 °F 29.88 in ESE 5.0 mph 5.0 mph 59% 0.00 in 399.00 W/m2
08:33 69.5 °F 55.0 °F 29.88 in Calm   6.0 mph 60% 0.00 in 417.00 W/m2
08:38 69.7 °F 54.8 °F 29.88 in Calm     59% 0.00 in 429.00 W/m2
08:44 69.9 °F 55.8 °F 29.88 in Calm   4.0 mph 61% 0.00 in 445.00 W/m2
08:49 70.1 °F 56.0 °F 29.89 in ESE 1.0 mph 6.0 mph 61% 0.00 in 459.00 W/m2
08:54 70.3 °F 56.2 °F 29.89 in Calm     61% 0.00 in 473.00 W/m2
08:59 70.5 °F 56.0 °F 29.89 in Calm   2.0 mph 60% 0.00 in 489.00 W/m2
09:04 70.7 °F 56.6 °F 29.89 in Calm     61% 0.00 in 501.00 W/m2
09:09 70.9 °F 56.8 °F 29.89 in ESE 4.0 mph 4.0 mph 61% 0.00 in 519.00 W/m2
09:14 71.1 °F 56.1 °F 29.89 in Calm   8.0 mph 59% 0.00 in 534.00 W/m2
09:19 71.3 °F 56.2 °F 29.89 in Calm   6.0 mph 59% 0.00 in 548.00 W/m2
09:24 71.6 °F 55.6 °F 29.89 in SE 4.0 mph 10.0 mph 57% 0.00 in 561.00 W/m2
09:29 72.0 °F 55.0 °F 29.89 in Calm   10.0 mph 55% 0.00 in 577.00 W/m2
09:34 72.4 °F 55.3 °F 29.89 in Calm   6.0 mph 55% 0.00 in 591.00 W/m2
09:39 72.7 °F 55.6 °F 29.90 in SSE 8.0 mph 9.0 mph 55% 0.00 in 605.00 W/m2
09:44 73.1 °F 56.5 °F 29.90 in Calm   8.0 mph 56% 0.00 in 619.00 W/m2
09:49 73.3 °F 54.1 °F 29.90 in Calm   12.0 mph 51% 0.00 in 631.00 W/m2
09:54 73.6 °F 55.4 °F 29.90 in Calm   6.0 mph 53% 0.00 in 645.00 W/m2
09:59 73.9 °F 55.2 °F 29.90 in Calm   7.0 mph 52% 0.00 in 657.00 W/m2
10:04 74.3 °F 55.6 °F 29.90 in Calm   9.0 mph 52% 0.00 in 668.00 W/m2
10:09 74.6 °F 55.3 °F 29.90 in Calm   12.0 mph 51% 0.00 in 684.00 W/m2
10:14 75.0 °F 54.6 °F 29.90 in Calm   10.0 mph 49% 0.00 in 694.00 W/m2
10:19 75.3 °F 55.4 °F 29.91 in South 7.0 mph 7.0 mph 50% 0.00 in 707.00 W/m2
10:24 75.7 °F 53.5 °F 29.91 in SSW 5.0 mph 9.0 mph 46% 0.00 in 719.00 W/m2
10:29 76.0 °F 54.3 °F 29.90 in Calm   7.0 mph 47% 0.00 in 729.00 W/m2
10:35 76.4 °F 54.7 °F 29.91 in SSW 7.0 mph 11.0 mph 47% 0.00 in 738.00 W/m2
10:40 76.7 °F 53.2 °F 29.91 in SW 5.0 mph 10.0 mph 44% 0.00 in 749.00 W/m2
10:45 77.2 °F 54.2 °F 29.91 in South 4.0 mph 7.0 mph 45% 0.00 in 761.00 W/m2
10:50 77.6 °F 54.6 °F 29.91 in South 2.0 mph 7.0 mph 45% 0.00 in 772.00 W/m2
10:55 78.0 °F 54.3 °F 29.91 in SW 3.0 mph 10.0 mph 44% 0.00 in 780.00 W/m2
11:00 78.4 °F 52.8 °F 29.91 in SW 6.0 mph 10.0 mph 41% 0.00 in 789.00 W/m2
11:05 78.7 °F 52.4 °F 29.91 in Calm   7.0 mph 40% 0.00 in 798.00 W/m2
11:10 78.9 °F 52.5 °F 29.91 in Calm   9.0 mph 40% 0.00 in 809.00 W/m2
11:15 79.2 °F 51.4 °F 29.91 in Calm   7.0 mph 38% 0.00 in 817.00 W/m2
11:20 79.5 °F 51.7 °F 29.91 in Calm   8.0 mph 38% 0.00 in 826.00 W/m2
11:25 79.8 °F 52.7 °F 29.91 in Calm   7.0 mph 39% 0.00 in 830.00 W/m2
11:30 80.0 °F 52.8 °F 29.91 in Calm   8.0 mph 39% 0.00 in 838.00 W/m2
11:35 80.2 °F 52.3 °F 29.91 in South 5.0 mph 9.0 mph 38% 0.00 in 849.00 W/m2
11:40 80.5 °F 51.1 °F 29.91 in Calm   9.0 mph 36% 0.00 in 856.00 W/m2
11:45 80.8 °F 52.1 °F 29.91 in Calm   8.0 mph 37% 0.00 in 861.00 W/m2
11:50 81.1 °F 51.7 °F 29.91 in Calm   9.0 mph 36% 0.00 in 868.00 W/m2
11:55 81.5 °F 52.0 °F 29.91 in Calm   10.0 mph 36% 0.00 in 874.00 W/m2
12:00 81.9 °F 52.3 °F 29.91 in SW 4.0 mph 10.0 mph 36% 0.00 in 879.00 W/m2
12:05 82.2 °F 51.8 °F 29.91 in SSE 5.0 mph 12.0 mph 35% 0.00 in 884.00 W/m2
12:10 82.6 °F 53.7 °F 29.91 in SSW 3.0 mph 10.0 mph 37% 0.00 in 888.00 W/m2
12:15 83.0 °F 54.1 °F 29.91 in Calm   6.0 mph 37% 0.00 in 893.00 W/m2
12:20 83.4 °F 53.7 °F 29.91 in Calm   5.0 mph 36% 0.00 in 895.00 W/m2
12:25 83.6 °F 52.3 °F 29.91 in SW 6.0 mph 12.0 mph 34% 0.00 in 896.00 W/m2
12:30 83.4 °F 53.7 °F 29.91 in SSE 12.0 mph 15.0 mph 36% 0.00 in 902.00 W/m2
12:35 83.7 °F 52.4 °F 29.91 in SSW 3.0 mph 10.0 mph 34% 0.00 in 900.00 W/m2
12:40 84.0 °F 52.6 °F 29.91 in WSW 4.0 mph 10.0 mph 34% 0.00 in 911.00 W/m2
12:45 83.9 °F 52.6 °F 29.90 in Calm   4.0 mph 34% 0.00 in 904.00 W/m2
12:50 83.9 °F 53.3 °F 29.91 in West 5.0 mph 8.0 mph 35% 0.00 in 907.00 W/m2
12:55 83.7 °F 52.4 °F 29.91 in Calm   7.0 mph 34% 0.00 in 909.00 W/m2
13:00 83.6 °F 52.3 °F 29.91 in Calm   8.0 mph 34% 0.00 in 909.00 W/m2
13:05 83.7 °F 52.4 °F 29.91 in Calm   11.0 mph 34% 0.00 in 911.00 W/m2
13:10 83.8 °F 52.5 °F 29.90 in Calm   9.0 mph 34% 0.00 in 907.00 W/m2
13:15 84.0 °F 52.6 °F 29.90 in Calm   8.0 mph 34% 0.00 in 905.00 W/m2
13:20 84.6 °F 52.4 °F 29.90 in WSW 6.0 mph 7.0 mph 33% 0.00 in 911.00 W/m2
13:25 84.7 °F 54.0 °F 29.90 in SSW 3.0 mph 8.0 mph 35% 0.00 in 907.00 W/m2
13:30 84.6 °F 53.2 °F 29.90 in WSW 1.0 mph 4.0 mph 34% 0.00 in 905.00 W/m2
13:35 84.4 °F 52.2 °F 29.90 in Calm   7.0 mph 33% 0.00 in 907.00 W/m2
13:38 84.4 °F 53.8 °F 29.90 in Calm   2.0 mph 35% 0.00 in 909.00 W/m2
13:43 84.6 °F 53.2 °F 29.90 in Calm   9.0 mph 34% 0.00 in 902.00 W/m2
13:48 85.1 °F 52.8 °F 29.90 in Calm   1.0 mph 33% 0.00 in 898.00 W/m2
13:53 84.9 °F 52.6 °F 29.90 in Calm   8.0 mph 33% 0.00 in 895.00 W/m2
13:58 84.5 °F 50.6 °F 29.90 in Calm   5.0 mph 31% 0.00 in 891.00 W/m2
13:59 84.5 °F 50.6 °F 29.90 in Calm   5.0 mph 31% 0.00 in 889.00 W/m2
14:04 84.3 °F 52.9 °F 29.90 in SW 5.0 mph 5.0 mph 34% 0.00 in 884.00 W/m2
14:09 84.5 °F 52.3 °F 29.90 in Calm   10.0 mph 33% 0.00 in 881.00 W/m2
14:14 84.6 °F 51.5 °F 29.90 in Calm   11.0 mph 32% 0.00 in 877.00 W/m2
14:19 84.6 °F 52.4 °F 29.90 in Calm   10.0 mph 33% 0.00 in 874.00 W/m2
14:24 85.0 °F 51.0 °F 29.90 in WSW 5.0 mph 9.0 mph 31% 0.00 in 867.00 W/m2
14:29 85.4 °F 51.4 °F 29.90 in Calm   8.0 mph 31% 0.00 in 861.00 W/m2
14:34 85.6 °F 50.7 °F 29.90 in SW 7.0 mph 9.0 mph 30% 0.00 in 854.00 W/m2
14:39 85.0 °F 51.0 °F 29.90 in WSW 2.0 mph 2.0 mph 31% 0.00 in 849.00 W/m2
14:44 84.4 °F 52.2 °F 29.90 in Calm   7.0 mph 33% 0.00 in 842.00 W/m2
14:49 84.2 °F 52.8 °F 29.90 in Calm   1.0 mph 34% 0.00 in 833.00 W/m2
14:54 84.2 °F 51.2 °F 29.90 in Calm   7.0 mph 32% 0.00 in 828.00 W/m2
14:59 84.4 °F 51.3 °F 29.90 in SW 5.0 mph 8.0 mph 32% 0.00 in 819.00 W/m2
15:04 84.6 °F 51.5 °F 29.90 in Calm   7.0 mph 32% 0.00 in 809.00 W/m2
15:09 84.7 °F 51.6 °F 29.90 in Calm   7.0 mph 32% 0.00 in 802.00 W/m2
15:15 84.8 °F 51.7 °F 29.89 in SW 6.0 mph 8.0 mph 32% 0.00 in 791.00 W/m2
15:20 84.8 °F 50.8 °F 29.89 in West 5.0 mph 9.0 mph 31% 0.00 in 782.00 W/m2
15:25 84.6 °F 50.7 °F 29.89 in Calm   8.0 mph 31% 0.00 in 773.00 W/m2
15:30 84.6 °F 51.5 °F 29.90 in Calm   8.0 mph 32% 0.00 in 763.00 W/m2
15:35 84.7 °F 50.8 °F 29.90 in Calm   7.0 mph 31% 0.00 in 752.00 W/m2
15:40 84.7 °F 52.4 °F 29.89 in Calm   8.0 mph 33% 0.00 in 744.00 W/m2
15:45 84.7 °F 51.6 °F 29.90 in West 1.0 mph 9.0 mph 32% 0.00 in 735.00 W/m2
15:50 84.7 °F 50.8 °F 29.90 in Calm   9.0 mph 31% 0.00 in 721.00 W/m2
15:55 84.3 °F 50.4 °F 29.90 in Calm   3.0 mph 31% 0.00 in 707.00 W/m2
16:00 84.0 °F 51.8 °F 29.90 in Calm   6.0 mph 33% 0.00 in 694.00 W/m2
16:05 83.8 °F 51.7 °F 29.89 in Calm   6.0 mph 33% 0.00 in 684.00 W/m2
16:10 83.7 °F 51.6 °F 29.89 in Calm   5.0 mph 33% 0.00 in 671.00 W/m2
16:15 83.7 °F 50.7 °F 29.89 in WSW 1.0 mph 10.0 mph 32% 0.00 in 657.00 W/m2
16:20 83.8 °F 50.8 °F 29.89 in West 2.0 mph 9.0 mph 32% 0.00 in 647.00 W/m2
16:21 83.8 °F 50.8 °F 29.89 in Calm     32% 0.00 in 645.00 W/m2
16:26 83.9 °F 51.8 °F 29.89 in Calm     33% 0.00 in 633.00 W/m2
16:31 84.0 °F 51.0 °F 29.89 in Calm     32% 0.00 in 621.00 W/m2
16:36 84.0 °F 51.0 °F 29.89 in SW 6.0 mph 7.0 mph 32% 0.00 in 610.00 W/m2
16:41 84.1 °F 50.2 °F 29.89 in Calm   1.0 mph 31% 0.00 in 594.00 W/m2
16:46 84.1 °F 51.1 °F 29.89 in SW 9.0 mph 9.0 mph 32% 0.00 in 580.00 W/m2
16:51 84.2 °F 51.2 °F 29.89 in SSW 3.0 mph 9.0 mph 32% 0.00 in 566.00 W/m2
16:56 84.2 °F 50.3 °F 29.89 in Calm     31% 0.00 in 550.00 W/m2
17:01 84.1 °F 51.1 °F 29.89 in Calm   3.0 mph 32% 0.00 in 534.00 W/m2
17:06 83.9 °F 51.8 °F 29.89 in WSW 4.0 mph 4.0 mph 33% 0.00 in 524.00 W/m2
17:11 83.7 °F 51.6 °F 29.89 in SSW 7.0 mph 7.0 mph 33% 0.00 in 506.00 W/m2
17:16 83.6 °F 50.7 °F 29.89 in Calm   6.0 mph 32% 0.00 in 490.00 W/m2
17:22 83.6 °F 51.5 °F 29.89 in Calm   4.0 mph 33% 0.00 in 476.00 W/m2
17:27 83.5 °F 51.4 °F 29.88 in Calm   7.0 mph 33% 0.00 in 457.00 W/m2
17:32 83.5 °F 51.4 °F 29.89 in Calm   7.0 mph 33% 0.00 in 441.00 W/m2
17:36 83.5 °F 51.4 °F 29.89 in Calm   7.0 mph 33% 0.00 in 432.00 W/m2
17:41 83.3 °F 52.0 °F 29.89 in Calm     34% 0.00 in 417.00 W/m2
17:46 83.2 °F 51.1 °F 29.89 in SSW 2.0 mph 3.0 mph 33% 0.00 in 399.00 W/m2
17:51 83.1 °F 51.9 °F 29.89 in Calm     34% 0.00 in 385.00 W/m2
17:56 83.0 °F 53.3 °F 29.89 in Calm   8.0 mph 36% 0.00 in 364.00 W/m2
18:01 82.9 °F 52.5 °F 29.89 in Calm     35% 0.00 in 353.00 W/m2
18:06 82.8 °F 51.6 °F 29.89 in Calm     34% 0.00 in 338.00 W/m2
18:11 82.7 °F 51.5 °F 29.89 in Calm   3.0 mph 34% 0.00 in 322.00 W/m2
18:16 82.5 °F 52.9 °F 29.89 in WSW 1.0 mph 1.0 mph 36% 0.00 in 302.00 W/m2
18:21 82.2 °F 52.6 °F 29.89 in Calm     36% 0.00 in 288.00 W/m2
18:26 82.1 °F 52.5 °F 29.89 in West 2.0 mph 5.0 mph 36% 0.00 in 271.00 W/m2
18:31 82.0 °F 53.2 °F 29.89 in Calm     37% 0.00 in 257.00 W/m2
18:41 81.6 °F 53.6 °F 29.89 in Calm   2.0 mph 38% 0.00 in 223.00 W/m2
18:46 81.5 °F 53.5 °F 29.89 in Calm     38% 0.00 in 207.00 W/m2
18:51 81.3 °F 53.3 °F 29.89 in Calm   1.0 mph 38% 0.00 in 195.00 W/m2
18:56 81.1 °F 54.5 °F 29.89 in Calm   1.0 mph 40% 0.00 in 179.00 W/m2
19:01 80.7 °F 54.8 °F 29.89 in Calm     41% 0.00 in 163.00 W/m2
19:06 80.3 °F 53.8 °F 29.90 in Calm     40% 0.00 in 146.00 W/m2
19:11 80.0 °F 54.2 °F 29.90 in Calm     41% 0.00 in 128.00 W/m2
19:16 79.6 °F 53.8 °F 29.90 in Calm     41% 0.00 in 111.00 W/m2
19:26 79.1 °F 54.7 °F 29.90 in Calm     43% 0.00 in 77.00 W/m2
19:36 78.7 °F 55.0 °F 29.90 in Calm     44% 0.00 in 53.00 W/m2
19:41 78.4 °F 54.7 °F 29.90 in Calm   1.0 mph 44% 0.00 in 42.00 W/m2
19:46 78.2 °F 54.5 °F 29.90 in Calm   1.0 mph 44% 0.00 in 32.00 W/m2
19:51 78.1 °F 54.4 °F 29.90 in Calm     44% 0.00 in 25.00 W/m2
19:56 77.8 °F 54.2 °F 29.91 in Calm     44% 0.00 in 19.00 W/m2
19:57 77.8 °F 54.8 °F 29.91 in Calm     45% 0.00 in 19.00 W/m2
20:02 77.4 °F 53.8 °F 29.91 in Calm   1.0 mph 44% 0.00 in 16.00 W/m2
20:07 77.0 °F 54.1 °F 29.91 in West 1.0 mph 1.0 mph 45% 0.00 in 12.00 W/m2
20:12 76.5 °F 53.6 °F 29.91 in Calm   3.0 mph 45% 0.00 in 11.00 W/m2
20:17 76.0 °F 53.2 °F 29.91 in Calm   2.0 mph 45% 0.00 in 7.00 W/m2
20:22 75.4 °F 52.6 °F 29.91 in West 4.0 mph 5.0 mph 45% 0.00 in 5.00 W/m2
20:27 75.2 °F 52.4 °F 29.91 in West 3.0 mph 4.0 mph 45% 0.00 in 0.00 W/m2
20:32 75.0 °F 52.2 °F 29.91 in Calm   1.0 mph 45% 0.00 in 0.00 W/m2
20:37 74.9 °F 51.5 °F 29.91 in Calm   1.0 mph 44% 0.00 in 0.00 W/m2
20:42 74.7 °F 51.4 °F 29.91 in Calm     44% 0.00 in 0.00 W/m2
20:47 74.3 °F 51.6 °F 29.91 in Calm   4.0 mph 45% 0.00 in 0.00 W/m2
20:52 73.9 °F 51.2 °F 29.92 in Calm     45% 0.00 in 0.00 W/m2
20:57 73.7 °F 51.1 °F 29.92 in Calm     45% 0.00 in 0.00 W/m2
21:02 73.4 °F 51.4 °F 29.92 in Calm     46% 0.00 in 0.00 W/m2
21:07 73.3 °F 51.3 °F 29.92 in Calm     46% 0.00 in 0.00 W/m2
21:12 73.1 °F 51.1 °F 29.93 in Calm     46% 0.00 in 0.00 W/m2
21:17 73.0 °F 51.0 °F 29.93 in Calm   1.0 mph 46% 0.00 in 0.00 W/m2
21:22 72.9 °F 50.9 °F 29.93 in Calm     46% 0.00 in 0.00 W/m2
21:27 72.7 °F 50.8 °F 29.93 in Calm     46% 0.00 in 0.00 W/m2
21:32 72.5 °F 50.6 °F 29.93 in Calm     46% 0.00 in 0.00 W/m2
21:37 72.3 °F 50.4 °F 29.93 in Calm     46% 0.00 in 0.00 W/m2
21:42 72.2 °F 50.3 °F 29.93 in Calm     46% 0.00 in 0.00 W/m2
21:47 72.2 °F 50.3 °F 29.93 in Calm   1.0 mph 46% 0.00 in 0.00 W/m2
21:52 72.1 °F 50.2 °F 29.94 in Calm     46% 0.00 in 0.00 W/m2
21:57 72.1 °F 50.2 °F 29.93 in Calm   1.0 mph 46% 0.00 in 0.00 W/m2
22:02 71.9 °F 50.0 °F 29.94 in Calm     46% 0.00 in 0.00 W/m2
22:07 71.8 °F 49.9 °F 29.94 in WSW 2.0 mph 3.0 mph 46% 0.00 in 0.00 W/m2
22:12 71.8 °F 49.9 °F 29.94 in Calm   1.0 mph 46% 0.00 in 0.00 W/m2
22:17 71.7 °F 49.8 °F 29.94 in Calm   1.0 mph 46% 0.00 in 0.00 W/m2
22:22 71.6 °F 49.8 °F 29.94 in Calm   1.0 mph 46% 0.00 in 0.00 W/m2
22:27 71.6 °F 49.8 °F 29.94 in WSW 2.0 mph 2.0 mph 46% 0.00 in 0.00 W/m2
22:32 71.6 °F 50.3 °F 29.94 in Calm     47% 0.00 in 0.00 W/m2
22:37 71.6 °F 50.9 °F 29.94 in Calm   2.0 mph 48% 0.00 in 0.00 W/m2
22:42 71.6 °F 50.9 °F 29.93 in Calm   1.0 mph 48% 0.00 in 0.00 W/m2
22:47 71.5 °F 50.8 °F 29.94 in South 1.0 mph 5.0 mph 48% 0.00 in 0.00 W/m2
22:52 71.5 °F 51.4 °F 29.94 in SE 2.0 mph 6.0 mph 49% 0.00 in 0.00 W/m2
22:57 71.5 °F 51.4 °F 29.94 in East 9.0 mph 11.0 mph 49% 0.00 in 0.00 W/m2
23:02 71.4 °F 51.3 °F 29.94 in Calm   6.0 mph 49% 0.00 in 0.00 W/m2
23:07 71.3 °F 51.2 °F 29.94 in ESE 1.0 mph 9.0 mph 49% 0.00 in 0.00 W/m2
23:12 71.3 °F 51.2 °F 29.94 in ESE 7.0 mph 9.0 mph 49% 0.00 in 0.00 W/m2
23:17 71.3 °F 51.2 °F 29.94 in Calm   7.0 mph 49% 0.00 in 0.00 W/m2
23:22 71.2 °F 51.1 °F 29.94 in Calm   7.0 mph 49% 0.00 in 0.00 W/m2
23:27 71.2 °F 51.6 °F 29.94 in ESE 1.0 mph 9.0 mph 50% 0.00 in 0.00 W/m2
23:32 71.1 °F 51.5 °F 29.94 in Calm   9.0 mph 50% 0.00 in 0.00 W/m2
23:37 71.0 °F 51.5 °F 29.94 in ESE 4.0 mph 7.0 mph 50% 0.00 in 0.00 W/m2
23:42 71.0 °F 51.5 °F 29.94 in ESE 2.0 mph 7.0 mph 50% 0.00 in 0.00 W/m2
23:48 71.0 °F 51.5 °F 29.94 in Calm   2.0 mph 50% 0.00 in 0.00 W/m2
23:53 71.0 °F 51.5 °F 29.94 in Calm   9.0 mph 50% 0.00 in 0.00 W/m2
23:58 71.0 °F 51.5 °F 29.95 in ESE 2.0 mph 5.0 mph 50% 0.00 in 0.00 W/m2
Foresthill Weather
 WU-history PHP script courtesy of   Juneau County Weather.
powered by Cumulus v1.9.3 (1059)
Ambient Weather VWS v14.00
Top Contact Website Map Copyright © 2007 - 2018 Foresthillweather.com Never base important decisions on this or any weather information obtained from the Internet